EHI
4 5 5 4 1 0 0 1 3 5 6 6 4 1 1 1 2 2 3 6 8 8 7 6 5 4 3 2 1 0 1 1 1 1 1 1 1 0 0 0 0 0 0
7 7 6 5 3 3 3 4 4 4 4 4 3 2 2 2 3 4 6 7 7 7 8 9 7 5 3 1 0 1 2 2 1 2 2 2 1 0 0 0 0 0 0
10 9 7 7 6 7 7 6 4 3 2 1 1 3 4 4 4 5 8 9 8 8 10 11 10 7 4 2 1 2 3 2 2 2 3 2 1 0 0 0 0 0 0
10 9 8 8 9 8 6 4 3 3 2 1 2 3 5 6 6 5 9 13 13 12 12 13 13 10 6 3 3 3 3 2 1 1 1 1 0 0 0 0 0 0 0
8 8 8 9 9 6 2 2 2 3 3 3 2 3 5 8 9 7 8 14 17 16 15 15 14 11 7 5 4 5 4 3 1 1 0 0 0 0 0 0 0 0 0
8 9 8 8 9 7 3 1 3 4 5 5 3 2 5 11 13 11 11 14 17 16 16 17 16 13 9 7 7 8 8 6 5 3 3 2 2 1 1 1 1 1 0
10 11 10 9 10 10 6 3 4 4 5 5 4 2 5 11 13 15 18 19 18 16 15 19 21 18 12 8 8 10 10 10 9 7 6 5 4 3 3 3 3 2 1
13 13 13 12 13 13 10 8 7 6 3 4 4 3 5 8 10 13 19 21 20 17 15 18 24 24 16 10 8 9 11 12 11 8 7 6 5 5 6 6 4 4 3
16 17 18 18 17 17 16 14 12 9 5 4 4 4 4 6 8 10 13 17 17 15 14 15 21 25 20 14 11 9 11 13 11 8 7 6 5 5 6 6 5 5 4
18 20 23 24 22 21 19 15 13 13 11 8 6 6 4 5 7 8 9 11 13 14 14 14 16 21 22 19 16 12 11 12 11 9 8 8 7 7 5 5 5 5 5
24 24 25 26 26 25 21 15 13 15 14 11 8 8 6 5 5 6 7 8 11 16 18 17 16 17 20 22 20 15 10 9 8 8 9 8 8 8 7 5 4 5 6
29 29 28 29 29 28 24 19 16 16 15 12 9 9 9 7 6 6 6 6 10 15 20 21 19 15 15 19 18 13 9 6 5 5 6 7 7 8 7 5 4 4 5
30 31 34 35 32 28 24 20 18 17 16 14 12 11 12 10 8 8 7 6 8 12 17 20 20 16 13 14 14 11 7 5 3 3 3 3 3 4 4 3 3 3 4
30 34 38 38 34 27 20 16 16 17 18 16 15 15 15 11 9 9 8 6 6 8 12 16 19 17 15 15 13 10 7 5 3 2 1 1 1 1 1 1 1 2 2
34 39 42 38 34 27 19 15 14 15 16 17 16 17 16 12 10 11 11 8 6 6 8 12 15 15 15 14 10 10 10 6 3 2 0 0 0 0 0 0 0 1 1
39 43 44 40 34 26 20 18 15 13 13 14 15 16 16 14 11 11 12 11 9 7 8 9 11 12 12 9 7 10 11 8 4 2 1 1 0 0 0 0 0 0 0
43 45 45 41 34 26 23 21 17 12 11 11 13 14 14 15 13 9 8 10 10 9 9 8 9 12 12 9 8 10 9 6 4 3 2 1 0 0 0 0 0 0 0
44 45 45 41 34 28 26 25 20 14 10 10 11 12 13 13 14 11 9 9 9 10 10 10 10 12 13 12 12 12 8 5 4 4 3 2 0 0 0 0 0 0 0
47 46 44 41 35 30 29 28 25 19 14 12 12 12 11 11 13 14 13 12 11 12 13 12 12 12 11 12 14 13 9 6 4 3 3 2 1 1 0 0 0 0 0
49 48 45 41 37 32 28 29 28 23 18 16 14 12 10 10 12 13 14 16 16 16 15 13 12 11 10 11 13 13 11 9 5 3 3 3 3 2 1 0 0 0 0
51 52 50 45 37 28 24 25 25 24 21 18 17 15 12 11 11 10 11 15 17 18 17 15 12 11 11 12 12 12 12 10 7 4 4 4 4 3 2 1 1 0 0
57 58 57 49 34 21 15 15 18 20 21 19 19 19 14 11 11 10 9 9 11 14 15 15 13 12 13 13 12 12 11 9 8 6 6 5 5 5 5 3 2 0 0
59 61 59 48 31 17 9 7 9 14 17 19 23 22 17 13 13 13 11 8 7 8 9 10 12 13 13 13 13 13 11 10 10 9 7 6 5 7 7 5 2 0 0
55 55 53 45 31 18 9 4 3 9 15 19 23 22 19 15 13 12 13 13 11 9 6 5 7 9 9 9 10 12 12 11 10 10 8 6 5 6 6 5 2 0 0
47 44 43 40 32 22 12 5 3 9 16 20 19 17 14 11 10 9 11 13 13 11 8 5 4 4 3 3 5 8 10 10 9 9 8 6 5 4 3 3 2 1 0
41 38 37 36 31 24 16 7 5 10 18 20 17 14 9 7 7 8 9 11 11 11 9 6 3 1 0 0 1 5 8 8 7 7 7 6 4 2 1 2 2 2 1
Wind_Speed
2 3 2 2 2 2 2 2 2 3 2 2 2 2 2 2 2 4 4 8 7 6 5 5 5 5 5 4 4 4 5 4 4 5 5 5 5 5 6 5 5 5 5
3 2 2 1 2 1 2 2 3 2 2 2 1 1 1 1 2 3 5 6 7 6 6 6 5 5 5 4 4 5 5 4 5 4 4 4 4 5 5 6 6 5 5
2 2 2 1 1 1 1 1 2 1 2 2 2 2 1 1 2 3 4 4 5 6 6 6 6 5 5 5 4 5 5 4 4 4 4 3 3 4 4 5 5 5 5
2 1 1 1 1 1 1 2 2 2 2 2 2 1 2 1 2 3 3 4 4 4 6 7 6 6 6 5 4 4 4 4 4 4 4 4 4 5 5 5 5 5 5
2 1 1 1 1 1 1 1 2 1 1 1 2 2 2 2 2 2 2 3 3 4 4 6 7 6 6 5 5 4 4 4 4 4 5 5 5 6 6 7 7 7 6
2 1 2 1 1 1 1 1 1 0 1 1 1 1 1 2 2 2 3 2 3 4 4 5 5 5 6 5 4 4 4 4 4 4 4 5 5 6 7 8 8 8 7
1 1 1 1 1 1 1 1 0 1 1 1 1 0 1 2 3 3 2 2 2 3 3 4 4 3 3 5 4 4 4 4 4 4 4 4 6 6 7 8 8 8 8
1 2 1 0 1 1 1 1 1 1 1 1 1 1 1 1 2 2 3 3 3 2 3 4 4 3 3 3 4 5 4 4 5 5 5 5 5 5 6 8 8 9 9
2 1 2 0 0 1 1 1 1 1 1 2 1 1 1 1 1 1 2 2 2 1 2 2 3 4 4 3 4 4 5 4 5 5 5 5 5 6 7 8 9 9 9
2 2 2 1 1 0 1 2 1 2 2 2 1 1 1 1 1 1 1 1 3 3 3 2 2 3 4 3 4 5 5 4 4 5 5 4 5 6 7 8 9 9 9
2 1 1 1 1 1 1 1 0 1 1 1 1 1 1 2 2 1 1 1 2 2 2 2 2 2 3 4 3 4 6 5 4 4 4 4 4 5 6 7 8 9 9
2 2 2 1 1 1 1 1 1 1 1 1 1 1 1 1 1 1 2 2 2 2 2 2 2 2 3 3 4 6 7 6 5 4 4 4 3 3 4 5 6 7 7
2 1 1 1 1 1 1 1 1 1 1 1 2 2 1 1 1 1 1 1 1 1 1 2 2 2 2 2 3 6 7 8 7 5 4 3 3 2 2 3 4 5 6
1 2 2 2 1 1 1 1 2 2 2 2 3 2 2 2 1 1 1 1 1 1 1 1 2 2 2 2 3 6 5 8 7 7 6 5 4 3 3 2 2 2 3
2 2 2 2 2 1 1 1 1 2 1 2 2 2 1 1 1 1 1 0 1 1 1 1 1 1 2 2 4 3 3 6 8 8 7 6 6 5 4 4 3 3 2
1 2 2 2 2 2 2 2 2 2 2 2 1 1 1 1 1 1 1 1 1 1 1 1 0 1 1 1 3 2 2 5 7 8 8 8 7 7 6 5 4 4 3
2 3 3 2 2 2 2 2 2 2 2 2 2 2 2 1 1 2 2 1 1 1 1 1 0 0 1 0 1 1 2 3 3 7 9 9 9 8 7 6 6 5 4
3 3 2 2 3 2 2 2 3 3 2 2 2 2 2 2 1 1 2 2 1 1 1 2 1 1 1 2 2 2 2 3 3 6 10 9 9 9 8 8 7 6 5
3 3 3 3 2 2 2 2 2 2 2 2 2 2 2 2 1 2 2 2 2 2 1 1 2 1 1 1 2 2 2 2 3 4 8 10 9 9 9 8 7 6 6
4 3 3 3 3 2 2 2 2 2 2 2 2 2 2 1 1 2 2 2 2 2 2 2 1 2 1 2 1 2 2 2 3 3 3 5 8 10 10 10 9 8 7
4 3 3 2 2 2 2 2 2 2 2 2 2 1 1 1 0 1 2 2 2 2 2 2 2 1 1 1 1 2 2 2 3 2 2 3 3 4 6 8 9 10 9
3 3 3 2 2 2 1 1 1 1 1 1 1 1 2 2 1 1 2 3 3 2 2 2 2 1 2 1 1 2 2 2 2 2 2 3 2 3 4 5 9 11 10
3 3 3 3 2 1 0 0 1 2 2 1 1 1 2 0 2 1 2 3 3 4 4 3 3 3 3 2 2 3 2 3 3 2 2 3 2 3 3 5 11 12 12
2 2 2 2 2 1 1 0 1 3 2 1 1 1 0 0 2 2 2 2 2 2 4 4 3 3 3 2 2 3 4 4 3 3 2 3 2 3 2 2 9 11 12
2 2 2 2 2 1 1 1 1 2 2 2 1 1 1 0 0 2 2 2 2 2 3 3 4 4 5 5 3 2 3 2 3 3 1 2 2 2 2 2 4 9 10
2 2 2 2 2 2 2 2 2 2 2 2 2 2 1 1 1 1 1 2 3 3 3 3 3 4 5 6 6 4 3 3 3 3 2 1 2 1 2 1 2 3 5
Wind_Direction
99 111 118 145 143 147 156 150 165 153 163 172 192 186 173 146 152 135 137 160 165 174 181 184 188 187 182 186 194 193 194 189 188 197 202 200 202 202 197 193 187 184 190
97 111 117 113 124 127 124 158 163 160 168 177 198 163 171 167 149 142 150 162 170 174 181 183 187 187 187 189 186 187 189 185 185 190 196 200 199 196 192 189 191 189 188
101 117 119 135 108 109 151 163 148 158 170 170 169 166 174 187 174 166 167 166 170 178 182 183 188 190 188 189 189 186 184 182 178 172 167 169 180 189 194 194 193 196 201
119 103 117 111 137 159 162 151 165 172 171 179 173 187 164 185 188 186 181 171 172 171 180 187 190 189 190 192 187 182 181 181 180 182 183 186 194 195 194 195 202 205 206
120 120 118 103 195 135 138 161 117 159 190 183 192 185 179 185 203 205 188 177 170 159 158 173 183 182 182 186 187 184 182 180 184 194 203 207 208 206 202 203 207 209 212
123 124 127 120 112 90 78 73 80 134 203 223 249 174 193 185 190 199 216 190 177 171 165 160 175 187 187 187 184 187 189 194 200 212 219 219 218 217 214 210 210 212 215
98 86 58 126 105 96 99 105 158 233 227 183 165 225 246 210 200 199 204 201 178 166 152 159 165 163 163 172 176 184 198 204 206 216 227 233 229 225 222 215 216 218 220
169 149 121 200 118 146 159 183 198 233 247 189 180 174 234 226 252 220 183 193 190 173 174 173 173 160 154 154 165 186 201 212 217 223 233 237 233 228 227 224 223 220 220
156 127 134 152 181 164 150 220 205 233 245 235 206 195 204 207 193 205 200 172 152 176 207 177 167 159 163 165 161 184 192 203 219 225 230 233 233 230 231 229 224 220 219
170 163 159 164 215 123 147 238 171 256 232 252 222 222 222 215 195 183 235 182 181 193 212 197 157 157 161 149 144 151 177 198 215 224 231 238 243 241 240 231 224 220 217
184 171 170 180 183 168 195 257 242 270 257 269 272 243 233 237 235 195 211 216 212 196 187 179 176 172 166 161 157 162 171 187 205 221 231 237 249 251 245 232 227 220 218
182 183 181 177 198 178 207 222 248 245 272 293 292 292 270 257 248 212 215 220 212 219 183 179 180 184 175 162 174 168 172 182 194 211 224 227 240 262 263 240 230 222 219
176 193 159 151 201 195 204 199 217 246 255 267 279 284 286 277 270 260 230 242 224 224 194 188 182 178 172 153 163 162 176 179 188 199 205 208 221 242 266 260 248 232 224
181 164 154 161 193 208 214 208 227 215 219 236 252 261 281 287 294 271 259 279 268 245 208 212 172 160 151 148 158 164 174 181 188 195 199 203 209 219 225 236 254 249 238
199 154 163 172 187 201 230 227 242 251 225 227 255 268 268 287 304 308 308 278 250 260 243 210 166 148 142 146 153 175 169 183 196 200 201 203 204 207 210 214 219 222 225
181 157 173 187 200 204 217 231 237 235 226 220 224 251 272 303 306 310 301 306 294 280 278 225 204 128 114 152 158 185 195 188 202 206 205 205 206 208 210 210 211 213 214
193 194 192 197 209 212 222 230 235 243 228 230 238 222 226 259 305 310 316 313 305 297 270 279 227 142 137 105 142 214 196 205 205 212 208 207 209 210 211 210 210 213 213
206 205 198 209 219 210 218 231 243 233 230 232 238 236 236 233 223 272 294 286 286 271 240 271 261 222 215 196 203 228 224 219 211 211 207 208 211 213 213 211 211 211 212
206 210 199 204 215 218 228 230 238 234 236 241 229 229 239 243 250 268 272 292 296 292 248 246 262 238 228 227 219 239 246 242 241 216 202 211 217 213 211 211 211 212 213
208 207 207 205 205 211 234 237 239 238 232 233 228 234 244 236 254 281 278 288 298 306 289 263 251 245 229 242 225 238 250 241 257 251 208 204 207 207 208 209 210 213 217
210 201 204 198 191 202 228 233 237 230 226 231 224 208 205 174 239 280 300 316 307 300 298 292 279 276 262 246 250 256 258 252 255 252 244 223 197 203 208 211 211 213 215
203 201 199 186 203 224 256 220 235 244 222 223 234 226 209 187 175 233 271 269 264 264 275 283 290 280 291 296 292 286 283 290 278 264 257 258 206 209 208 198 198 201 207
200 195 186 179 179 123 359 316 251 252 237 220 219 239 267 265 180 219 249 245 247 245 237 249 277 286 286 295 310 302 291 278 268 262 268 271 249 238 220 193 187 193 200
191 187 182 180 159 146 139 145 294 240 247 242 224 205 177 308 325 333 288 273 252 239 234 232 250 270 276 287 283 274 271 275 269 262 226 259 261 252 234 182 192 194 200
183 183 165 161 151 153 172 151 267 235 235 232 226 218 250 217 12 340 319 307 298 287 253 239 230 245 253 259 265 290 289 289 288 285 243 246 269 268 243 212 204 198 201
174 176 175 169 163 166 179 189 216 249 239 219 191 185 201 216 224 241 249 272 279 284 292 281 261 253 252 255 242 232 255 269 283 281 269 263 278 294 283 248 191 194 209